Regional Weather Roundup
Issued by NWS Upton, NY

Home | Current Version | Previous Version | Text Only | Print | Product List | Glossary On
Versions: 1 2 3 4 5 6 7 8 9 10 11 12 13 14 15 16 17 18 19 20 21 22 23 24 25 26 27 28 29 30 31 32 33 34 35 36 37 38 39 40 41 42 43 44 45 46 47 48 49 50
406
ASUS41 KOKX 050508
RWROKX

REGIONAL WEATHER ROUNDUP
NATIONAL WEATHER SERVICE NEW YORK NY
1200 AM EST MON DEC 05 2016

NOTE: "FAIR" INDICATES FEW OR NO CLOUDS BELOW 12,000 FEET WITH NO
SIGNIFICANT WEATHER AND/OR OBSTRUCTIONS TO VISIBILITY.

NYZ071-072-176-178-NJZ106-104-050600-
NEW YORK CITY METRO AREA

CITY           SKY/WX    TMP DP  RH WIND       PRES   REMARKS
Central Park   CLOUDY    40  24  53 E8        30.14F WCI  34
Wall St Helipt CLOUDY    42  27  55 NE13      30.13F
Bronx Bot Gard NOT AVBL
LaGuardia APRT CLOUDY    41  24  51 E8        30.13F
Kennedy INTL   CLOUDY    41  24  51 E6        30.14F
Breezy Point     N/A     43 N/A N/A SE10        N/A
Newark/Liberty CLOUDY    42  25  50 E9        30.11F
Teterboro      CLOUDY    40  24  53 NE3       30.12F
$$

NYZ177-179-078>081-050600-
LONG ISLAND NEW YORK

CITY           SKY/WX    TMP DP  RH WIND       PRES   REMARKS
Jones Beach      N/A     39 N/A N/A E7          N/A  WCI  34
Matinecock PT  NOT AVBL
Farmingdale    CLOUDY    36  25  64 NE5       30.13F WCI  32
MacArthur/ISP  CLOUDY    37  26  64 E5        30.13F WCI  33
Shirley        MOCLDY    32  26  78 CALM      30.15F
Westhampton    CLOUDY    29  24  82 CALM      30.16F
Southampton    NOT AVBL
Bridgehampton  NOT AVBL
East Hampton     N/A     29  24  83 CALM      30.14F
Montauk          N/A     34  26  72 CALM      30.15F
$$

NYZ052-065-067-050600-
HUDSON VALLEY

CITY           SKY/WX    TMP DP  RH WIND       PRES   REMARKS
White Plains   CLOUDY    34  21  59 E6        30.10F WCI  29
Newburgh       MOCLDY    32  25  74 CALM      30.12F
Montgomery     MOCLDY    32  22  66 NE6       30.10F WCI  26
Poughkeepsie   MOCLDY    30  22  72 CALM      30.12F
Albany         CLOUDY    26  21  81 CALM      30.13F
$$

NJZ001-105-106-008-010-013-015-019>022-104-050600-
NEW JERSEY

CITY           SKY/WX    TMP DP  RH WIND       PRES   REMARKS
Newark/Liberty CLOUDY    42  25  50 E9        30.11F
Teterboro      CLOUDY    40  24  53 NE3       30.12F
Caldwell       CLOUDY    38  24  57 E7        30.12F WCI  33
Somerville     CLOUDY    39  28  64 CALM      30.09F
Linden         MOCLDY    41  25  52 SE7       30.12F
Sussex         CLOUDY    33  23  66 NE5       30.09F WCI  29
Andover          N/A     34  25  69 CALM      30.08F
Trenton        CLOUDY    41  27  57 S6        30.11F
Millville      LGT RAIN  42  35  76 CALM      30.12F
Atlantic City  CLOUDY    41  29  62 S3        30.13F
Wrightstown    NOT AVBL
Toms River     CLOUDY    37  31  78 SW5       30.14F WCI  33
Belmar         CLOUDY   N/A N/A N/A S3        30.13F
$$

PAZ047>061-062-071-050600-
EASTERN PENNSYLVANIA

CITY           SKY/WX    TMP DP  RH WIND       PRES   REMARKS
Philadelphia   CLOUDY    44  31  60 S9        30.12F
Allentown      CLOUDY    42  24  49 SE8       30.08F
Scranton       CLOUDY    39  22  50 CALM      30.01F
$$

CTZ002-004>006-009-010-012-RIZ004-006-007-MAZ004-011-015-050600-
SOUTHERN NEW ENGLAND
 IN CT

CITY           SKY/WX    TMP DP  RH WIND       PRES   REMARKS
Bradley INTL   CLOUDY    30  20  66 NW3       30.16F
Hartford       MOCLDY    32  22  66 CALM      30.16F
Danbury        NOT AVBL
Wtrbury/Oxford CLOUDY    30  19  64 E5        30.13F WCI  25
Bridgeport     MOCLDY    36  22  56 NE5       30.15F WCI  32
Meriden        MOCLDY    32  24  72 CALM      30.15F
New Haven      MOCLDY    33  23  66 N3        30.15F
Chester          N/A     32  21  64 CALM      30.14F
Groton         MOCLDY    34  25  69 N3        30.15F
Wilimantic     MOCLDY    29  24  82 CALM      30.16F

 IN RI

CITY           SKY/WX    TMP DP  RH WIND       PRES   REMARKS
Providence     CLOUDY    31  21  66 NE5       30.17F WCI  26
Block Island   MOCLDY    38  26  62 E6        30.15F WCI  33
Westerly       MOCLDY    31  21  66 N3        30.16F
 IN MA

CITY           SKY/WX    TMP DP  RH WIND       PRES   REMARKS
Boston         PTCLDY    32  21  64 W5        30.18S WCI  27
Worcester      CLOUDY    27  18  69 NE5       30.11F WCI  22
Westfield      CLOUDY    27  23  85 CALM      30.15F
Provincetown   CLOUDY    37  29  72 NW6       30.15F WCI  32
Nantucket      CLOUDY    32  23  69 W3        30.15F
$$

ANZ330-335-338-340-345-350-353-355-050600-
COASTAL MARINE OBSERVATIONS


STATION/POSITION TIME  SKY/WX   TEMP    WIND        PRES    VSBY  WAVE
                                AIR SEA DIR/SP/G                  HT/PER
                 (UTC)          (F)     (DEG/KT/KT) (MB)    (MI)  (FT/S)
NY HARB ENTRANCE 0450            45 53  130/ 10/ 12 1019.9          1/ 8
20 S FIRE ISLAND 0450            44 54  120/  6/ 10 1020.3          1/ 8
GREAT SOUTH BAY  0415            40 44                N/A
23 SSW MONTAUK P 0450            43 55  150/  4/  8 1021.3          1/ 8
15 E BARNEGAT LI 0430               54                N/A           1/ 8
HUDSON CANYON    0450            45 58              1020.3          2/ 4
KINGS POINT      0448            38 48              1020.0
EXECUTION ROCKS  0445            41     100/  8/ 12   N/A
CENTRAL LI SOUND 0430            40 50   80/  8/ 10   N/A           1/ 2
EASTERN LI SOUND NOT AVBL
ROBBINS REEF     0448            41      90/ 11/ 13 1020.0
$$


>>>>>>>>>>>>>>>>>>>>>>>>>>>> KEY <<<<<<<<<<<<<<<<<<<<<<<<<<<
>                                                          <
>     SKY/WX - Sky Condition/Present Weather               <
>     TMP    - Temperature in Fahrenheit                   <
>     DP     - Dew Point in Fahrenheit                     <
>     RH     - Relative Humidity in Percent                <
>     WIND   - Direction (from) and Speed in MPH           <
>     PRES   - Mean Sea Level Pressure (inches of Hg)      <
>     WCI    - Wind Chill Index                            <
>     VSB    - VISIBILITY IN MILES                         <
>     HX     - HEAT INDEX                                  <
>     TC     - TEMPERATURE IN CELSIUS                      <
>     VRB    - VARIABLE WIND DIRECTION                     <
>                                                          <
>>>>>>>>>>>>>>>>>>>>>>>>>>>> KEY <<<<<<<<<<<<<<<<<<<<<<<<<<<




USA.gov is the U.S. government's official web portal to all federal, state and local government web resources and services.